DW1253 Weather Reports


time (UTC)temp
F
wind
direction
speed
knots
gust
knots
rain 1hr
in
rain 24hr
in
rain mn
in
humidity
%
barometer
mb
20260904181832 73 244 0.9 6.1 0.00 0.01 0.00 79 1014.8
20260904181338 73 119 0.9 4.3 0.00 0.01 0.00 80 1015.0
20260904180834 72 215 1.7 3.5 0.00 0.01 0.00 81 1015.1
20260904180330 72 273 0.9 4.3 0.00 0.01 0.00 80 1015.1
20260904175836 72 178 0.9 4.3 0.00 0.01 0.00 82 1015.1
20260904175407 72 218 0.9 5.2 0.00 0.01 0.00 81 1015.2
20260904174845 72 229 2.6 6.1 0.00 0.01 0.00 81 1015.2
20260904174348 72 28 2.6 6.1 0.00 0.01 0.00 79 1015.2
20260904173846 72 200 2.6 5.2 0.00 0.01 0.00 81 1015.3
20260904173343 72 51 0.9 3.5 0.00 0.01 0.00 80 1015.3
20260904172846 72 105 0.9 5.2 0.00 0.01 0.00 79 1015.3
20260904172339 72 174 1.7 5.2 0.00 0.01 0.00 78 1015.6
20260904171832 72 303 1.7 5.2 0.00 0.01 0.00 79 1015.4
20260904171355 71 206 1.7 3.5 0.00 0.01 0.00 79 1015.5
20260904170840 72 176 0.9 4.3 0.00 0.01 0.00 78 1015.8
20260904170338 72 298 1.7 3.5 0.00 0.01 0.00 80 1015.9
20260904165837 71 141 0.9 2.6 0.00 0.01 0.00 80 1015.8
20260904165340 71 227 0.9 3.5 0.00 0.01 0.00 81 1015.9
20260904164834 71 37 0.9 3.5 0.00 0.01 0.00 79 1016.0
20260904164338 71 274 1.7 3.5 0.00 0.01 0.00 79 1015.9
20260904163843 71 192 0.9 2.6 0.00 0.01 0.00 79 1015.8
20260904163341 71 192 0.9 4.3 0.00 0.01 0.00 79 1015.9
20260904162835 71 221 1.7 4.3 0.00 0.01 0.00 79 1016.1
20260904162340 71 176 0.9 2.6 0.00 0.01 0.00 78 1015.9
20260904161836 71 360 0.9 3.5 0.00 0.01 0.00 78 1016.0
20260904161338 71 355 1.7 3.5 0.00 0.01 0.00 76 1015.9
20260904160835 72 253 0.9 5.2 0.00 0.01 0.00 78 1016.0
20260904160341 72 218 2.6 5.2 0.00 0.01 0.00 77 1015.9
20260904155843 72 248 2.6 4.3 0.00 0.01 0.00 76 1015.9
20260904155408 72 103 0.9 3.5 0.00 0.01 0.00 77 1015.7
20260904154908 71 192 1.7 3.5 0.00 0.01 0.00 76 1015.6
20260904154330 71 185 2.6 3.5 0.00 0.01 0.00 75 1015.6
20260904153838 71 211 0.9 5.2 0.00 0.01 0.00 76 1015.5
20260904153338 71 355 2.6 5.2 0.00 0.01 0.00 73 1015.5
20260904152834 71 134 1.7 6.1 0.00 0.01 0.00 74 1015.6
20260904152340 71 221 3.5 6.1 0.00 0.01 0.00 74 1015.5
20260904151900 71 193 1.7 3.5 0.00 0.01 0.00 73 1015.4
20260904151335 71 193 0.9 3.5 0.00 0.01 0.00 72 1015.7
20260904150844 71 42 0.9 5.2 0.00 0.01 0.00 70 1015.7
20260904150336 71 346 2.6 5.2 0.00 0.01 0.00 71 1015.6
20260904145839 71 194 0.9 3.5 0.00 0.01 0.00 73 1015.5
20260904145338 71 123 1.7 3.5 0.00 0.01 0.00 73 1015.5
20260904144848 70 216 0.9 4.3 0.00 0.01 0.00 76 1015.5
20260904144332 70 219 1.7 4.3 0.00 0.01 0.00 73 1015.4
20260904143834 70 92 0.9 2.6 0.00 0.01 0.00 78 1015.4
20260904143358 70 92 0.9 2.6 0.00 0.01 0.00 79 1015.4
20260904142907 70 76 0.9 2.6 0.00 0.01 0.00 79 1015.3
20260904142349 69 101 0.0 2.6 0.00 0.01 0.00 78 1015.2
20260904141849 69 102 0.0 2.6 0.00 0.01 0.00 78 1015.1
20260904141342 69 102 0.0 3.5 0.00 0.01 0.00 80 1015.0
20260904140835 69 102 0.0 3.5 0.00 0.01 0.00 82 1014.9
20260904140330 69 102 1.7 3.5 0.00 0.01 0.00 81 1015.0
20260904135909 69 45 0.0 2.6 0.00 0.01 0.00 82 1014.9
20260904135339 69 45 1.7 2.6 0.00 0.01 0.00 82 1014.9
20260904134850 69 45 0.9 3.5 0.00 0.01 0.00 83 1014.9
20260904134332 68 26 1.7 3.5 0.00 0.01 0.00 83 1015.0
20260904133857 68 105 2.6 3.5 0.00 0.01 0.00 82 1015.0
20260904133349 68 97 0.9 3.5 0.00 0.01 0.00 85 1015.1
20260904132838 68 84 0.9 2.6 0.00 0.01 0.00 81 1015.2
20260904132346 68 84 0.0 1.7 0.00 0.01 0.00 82 1015.3
20260904131851 67 84 0.0 1.7 0.00 0.01 0.00 83 1015.4
20260904131340 67 84 0.0 1.7 0.00 0.01 0.00 83 1015.4
20260904130833 67 84 0.0 0.9 0.00 0.01 0.00 83 1015.4
20260904130342 67 84 0.0 1.7 0.00 0.01 0.00 84 1015.3
20260904125833 67 84 0.9 2.6 0.00 0.01 0.00 82 1015.4
20260904125331 67 84 1.7 2.6 0.00 0.01 0.00 81 1015.6
20260904124838 67 84 0.9 2.6 0.00 0.01 0.00 82 1015.8
20260904015847 72 225 1.7 4.3 0.00 0.27 0.01 93 1014.0
20260904015337 72 184 1.7 2.6 0.00 0.27 0.01 94 1013.9
20260904014839 72 268 0.9 7.0 0.00 0.27 0.01 93 1013.9
20260904014348 72 254 2.6 7.0 0.00 0.27 0.01 93 1013.9
20260904013842 72 230 1.7 9.6 0.00 0.27 0.01 93 1013.9
20260904013332 72 220 2.6 9.6 0.00 0.27 0.01 93 1013.8
20260904012909 72 211 1.7 10.4 0.00 0.27 0.01 94 1013.7
20260904012330 72 234 4.3 10.4 0.00 0.27 0.01 94 1013.7
20260904011836 72 221 4.3 9.6 0.00 0.27 0.01 93 1013.7
20260904011400 72 252 4.3 10.4 0.00 0.27 0.01 93 1013.7
20260904010837 72 267 5.2 10.4 0.00 0.27 0.01 93 1013.8
20260904010400 73 215 2.6 8.7 0.00 0.27 0.01 93 1013.7
20260904005837 73 226 2.6 8.7 0.00 0.32 0.01 93 1013.6
20260904005337 73 245 3.5 8.7 0.00 0.32 0.01 93 1013.4
20260904004839 73 235 3.5 8.7 0.00 0.32 0.01 93 1013.4
20260904004338 73 259 3.5 8.7 0.00 0.32 0.01 93 1013.3
20260904003843 73 230 3.5 9.6 0.00 0.32 0.01 93 1013.4
20260904003406 73 271 1.7 6.1 0.01 0.32 0.01 93 1013.3
20260904002854 73 42 2.6 8.7 0.01 0.32 0.01 93 1013.1
20260904002352 73 209 3.5 8.7 0.01 0.32 0.01 93 1012.9
20260904001903 74 157 1.7 7.8 0.01 0.32 0.01 93 1012.9
20260904001343 74 227 2.6 7.8 0.01 0.32 0.01 93 1013.1
20260904000910 74 260 2.6 7.8 0.01 0.32 0.01 92 1013.1
20260904000350 74 222 0.9 4.3 0.01 0.32 0.01 92 1013.1
20260903235843 74 199 1.7 4.3 0.01 0.75 0.01 92 1013.3
20260903235340 74 233 1.7 3.5 0.01 0.75 0.01 92 1013.4
20260903234850 74 268 1.7 5.2 0.01 0.75 0.01 92 1013.4
20260903234333 74 231 2.6 5.2 0.01 0.75 0.01 91 1013.5
20260903233838 74 192 0.9 2.6 0.01 0.75 0.01 91 1013.7
20260903233349 74 263 0.9 6.1 0.00 0.74 0.00 91 1013.8
20260903232849 74 243 1.7 6.1 0.00 0.74 0.00 91 1013.8
20260903232331 74 171 1.7 5.2 0.00 0.74 0.00 91 1013.8
20260903231900 74 221 0.9 4.3 0.00 0.74 0.00 91 1013.6
20260903231338 74 200 1.7 4.3 0.00 0.74 0.00 91 1013.6
20260903230847 74 199 1.7 4.3 0.00 0.74 0.00 90 1013.5
20260903230346 75 244 0.9 6.1 0.00 0.74 0.00 90 1013.8
20260903225847 75 254 0.9 6.1 0.00 0.74 0.00 90 1013.8
20260903225341 75 232 1.7 3.5 0.00 0.74 0.00 90 1013.8
20260903224848 75 336 1.7 3.5 0.00 0.74 0.00 90 1013.8
20260903224332 75 222 1.7 4.3 0.00 0.74 0.00 90 1013.8
20260903223840 75 181 2.6 6.1 0.00 0.74 0.00 90 1013.8
20260903223337 75 224 2.6 6.1 0.00 0.74 0.00 90 1013.9
20260903222845 75 215 1.7 5.2 0.00 0.74 0.00 90 1013.8
20260903222343 75 238 0.9 3.5 0.00 0.74 0.00 90 1014.0
20260903221839 75 246 1.7 4.3 0.00 0.74 0.00 90 1014.1
20260903221336 75 227 1.7 7.8 0.00 0.74 0.00 90 1013.8
20260903220854 75 223 2.6 7.8 0.00 0.74 0.00 90 1013.6
20260903220332 75 219 1.7 3.5 0.00 0.74 0.00 90 1013.5
20260903215837 75 222 1.7 3.5 0.00 0.74 0.00 90 1013.4
20260903215342 75 309 0.9 3.5 0.00 0.74 0.00 90 1013.4
20260903214846 75 334 0.9 3.5 0.00 0.74 0.00 90 1013.4
20260903214347 75 187 0.9 3.5 0.00 0.74 0.00 90 1013.2
20260903213848 75 187 1.7 3.5 0.00 0.74 0.00 90 1012.9
20260903213343 75 187 1.7 3.5 0.00 0.74 0.00 90 1012.9
20260903212836 75 187 1.7 5.2 0.00 0.74 0.00 89 1013.0
20260903212336 75 265 1.7 5.2 0.00 0.74 0.00 90 1013.1
20260903211834 75 236 0.9 5.2 0.00 0.74 0.00 89 1013.1
20260903211332 76 240 1.7 6.1 0.00 0.74 0.00 90 1013.3
20260903210838 75 242 2.6 6.1 0.00 0.74 0.00 89 1013.4
20260903210343 76 226 1.7 5.2 0.00 0.74 0.00 90 1013.4
20260903205852 76 227 1.7 4.3 0.00 0.74 0.00 89 1013.4
20260903205352 76 230 1.7 4.3 0.00 0.74 0.00 89 1013.3
20260903204911 76 210 1.7 4.3 0.00 0.74 0.00 89 1013.4
20260903204355 76 112 1.7 3.5 0.00 0.74 0.00 88 1013.5
20260903203833 76 42 1.7 3.5 0.00 0.74 0.00 88 1013.7
20260903203341 76 227 0.9 4.3 0.00 0.74 0.00 88 1013.8
20260903202844 76 209 1.7 6.1 0.00 0.74 0.00 89 1013.8
20260903202411 76 196 1.7 7.0 0.00 0.74 0.00 88 1013.8
20260903201833 76 292 1.7 7.0 0.00 0.74 0.00 88 1013.8
20260903201331 76 200 1.7 6.1 0.00 0.74 0.00 88 1013.9
20260903200831 76 190 2.6 5.2 0.00 0.74 0.00 87 1014.0
20260903200338 76 213 1.7 5.2 0.00 0.74 0.00 88 1013.9
20260903195844 76 192 1.7 5.2 0.00 0.74 0.00 88 1014.2
20260903195348 75 205 1.7 6.1 0.00 0.74 0.00 88 1014.2
20260903194845 75 202 1.7 5.2 0.00 0.74 0.00 87 1014.1
20260903194339 75 202 2.6 7.8 0.00 0.74 0.00 86 1014.1
20260903193836 75 205 3.5 7.8 0.00 0.74 0.00 87 1014.0
20260903193337 75 220 3.5 8.7 0.00 0.74 0.00 86 1014.0
20260903192842 76 252 3.5 8.7 0.00 0.74 0.00 86 1014.1
20260903192350 76 150 1.7 6.1 0.00 0.74 0.00 86 1014.3
20260903191855 76 269 2.6 6.1 0.00 0.74 0.00 86 1014.2
20260903191343 76 160 2.6 5.2 0.00 0.74 0.00 85 1014.4
20260903190844 76 261 1.7 5.2 0.00 0.74 0.00 85 1014.3
20260903190357 77 239 2.6 8.7 0.00 0.74 0.00 84 1014.2
20260903185850 77 186 2.6 8.7 0.00 0.74 0.00 84 1014.0
20260903185344 77 215 2.6 9.6 0.00 0.74 0.00 83 1014.1
20260903184842 77 234 3.5 9.6 0.00 0.74 0.00 83 1014.1
20260903184410 77 155 1.7 5.2 0.00 0.74 0.00 84 1014.2
20260903183830 78 240 2.6 11.3 0.00 0.74 0.00 82 1014.1
20260903183332 78 196 5.2 11.3 0.00 0.74 0.00 81 1014.2
20260903182912 78 238 2.6 7.0 0.00 0.74 0.00 81 1014.2
20260903182352 78 212 2.6 7.0 0.00 0.74 0.00 80 1014.3